Regional Weather Roundup
Issued by NWS Lake Charles, LA

Home | Current Version | Previous Version | Text Only | Print | Product List | Glossary On
Versions: 1 2 3 4 5 6 7 8 9 10 11 12 13 14 15 16 17 18 19 20 21 22 23 24 25 26 27 28 29 30 31 32 33 34 35 36 37 38 39 40 41 42 43 44 45 46 47 48 49 50
000
ASUS44 KLCH 291210
RWRLCH
RWRLCH
REGIONAL WEATHER ROUNDUP
NATIONAL WEATHER SERVICE LAKE CHARLES LA
700 AM CDT TUE JUL 29 2014

Note: "fair" indicates few or no clouds below 12,000 feet with no
significant weather and/or obstructions to visibility.


ACROSS SOUTHEAST TEXAS

CITY           SKY/WX    TMP DP  RH WIND       PRES   REMARKS
BEAUMONT       CLOUDY    80  72  76 N7        30.07R
BEAUMONT CITY    N/A     77  73  89 CALM      30.07S
ORANGE         PTSUNNY   76  76 100 CALM      30.08R
JASPER         CLOUDY    72  71  96 CALM      30.11R FOG
$$

ACROSS CENTRAL LOUISIANA

CITY           SKY/WX    TMP DP  RH WIND       PRES   REMARKS
LEESVILLE      MOCLDY    74  71  91 CALM      30.08R
FULLERTON      PTSUNNY   76  71  85 CALM      30.06R
ALEXANDRIA INT PTCLDY    72  70  93 CALM      30.06R
ESLER FIELD    PTCLDY    71  68  90 CALM      30.08S FOG
DERIDDER         N/A     74  72  91 CALM      30.10R
OAKDALE        CLOUDY    76  73  92 CALM      30.07R
OPELOUSAS      CLOUDY    74  72  92 CALM      30.07R
$$

ACROSS SOUTHWEST AND SOUTH CENTRAL LOUISIANA

CITY           SKY/WX    TMP DP  RH WIND       PRES   REMARKS
SULPHUR        PTSUNNY   77  74  93 CALM      30.08R
LAKE CHARLES   CLOUDY    78  73  84 N5        30.07R
CHENNAULT INT  MOCLDY    77  73  88 N8        30.06R
CAMERON PHI    MOSUNNY   79  75  89 NE5       30.06S
DEQUINCY       CLOUDY    74  72  93 CALM      30.08R
JENNINGS         N/A     77  75  93 NE6       30.06R
LAFAYETTE      NOT AVBL
NEW IBERIA     CLOUDY    78  75  90 NW6       30.07R
ABBEVILLE      CLOUDY    76  75  97 CALM      30.07R
PATTERSON      CLOUDY    77  75  94 CALM      30.09R
SALT POINT       N/A     79  76  90 CALM      30.05R
$$

SELECTED SITES ACROSS THE REGION

CITY           SKY/WX    TMP DP  RH WIND       PRES   REMARKS
HOUSTON BUSH   MOCLDY    80  76  87 SW3       30.06S
HOUSTON HOBBY  MOCLDY    81  76  84 NW5       30.06S
GALVESTON      PTCLDY    81  78  91 NW7       30.08R
COLLEGE STAT   PTCLDY    77  71  82 CALM      30.08R
CONROE         PTCLDY    73  72  96 CALM      30.08R
HUNTSVILLE     MOCLDY    74  71  91 CALM      30.08R
LUFKIN         MOCLDY    77  73  87 CALM      30.09R
SHREVEPORT     PTCLDY    74  69  85 N3        30.10R
MONROE         CLEAR     68  66  93 CALM      30.09R
NATCHEZ MS     PTCLDY    68  64  88 CALM      30.09R
BATON ROUGE    CLOUDY    74  70  87 CALM      30.05S
N.O. INTL ARPT CLOUDY    80  68  66 NE9       30.03S
SLIDELL        PTCLDY    72  69  90 N6        30.03S
$$

MARINE REPORTS

STATION/POSITION TIME  TEMP    WIND        PRES    VSBY  WAVE
                       AIR SEA DIR/SP/G                  HT/PER
                 (UTC) (F)     (DEG/KT/KT) (MB)    (MI)  (FT/S)
BUOY 30 S HIGH I NOT AVBL
SEA RIM ST PARK  1200   79     300/  3/  3 1018.6R
PORT ARTHUR      1200      88   10/  4/  6 1018.2R
SABINE PASS N    1200   82 87  360/  4/  5 1018.1R
TEXAS POINT      1200   81 88  320/  4/  7 1018.2R
CALCASIEU PASS   1200   80 88   10/  5/  6 1019.0R
LK CHARLES BEACH 1200   78 87              1018.8R
MARSH ISLAND     1100   76      CALM  /  1   N/A
FRESH WATER LOCK 1200   76 87   CALM  /  4 1018.1R
AMERADA PASS     1200   77 83   CALM  /  2 1017.5R
$$



USA.gov is the U.S. government's official web portal to all federal, state and local government web resources and services.